This demonstration page uses our WeatherBlox Daily Observations layout. Learn more.

Left ArrowRight Arrow

40.92945, -100.16068

Hourly Observations for April 20, 2020

Temp ( °F °C ) Dew Point ( °F °C ) Humidity (%) Winds ( mph kmh ) Pressure ( in mb ) Visibility ( mi km ) Precip ( " mm )
12:15 am 00:15 Cloudy 47 8.4 46 7.7 95 95 SE 9 15 29.90 1012 10 16 0.00 0.00
12:35 am 00:35 Mostly Cloudy 47 8.3 45 7.1 92 92 SE 3 6 29.91 1013 10 16 0.00 0.00
12:55 am 00:55 Clear 46 8 44 6.5 90 90 SSE 3 6 29.91 1013 10 16 0.00 0.00
1:15 am 01:15 Clear 45 7.3 44 6.4 94 94 E 5 7 29.92 1013 10 16 0.00 0.00
1:35 am 01:35 Clear 40 4.7 40 4.5 99 99 N 7 11 29.95 1014 10 16 0.00 0.00
1:55 am 01:55 Clear 40 4.7 40 4.7 100 100 Calm 29.95 1014 10 16 0.00 0.00
2:15 am 02:15 Clear with Mist and Fog 39 3.9 39 3.9 100 100 N 3 6 29.96 1015 5 8 0.00 0.00
2:35 am 02:35 Clear 39 3.8 39 3.7 99 99 NNW 3 6 29.96 1015 10 16 0.00 0.00
2:55 am 02:55 Clear 38 3.1 37 3 99 99 NW 8 13 29.96 1014 7 11 0.00 0.00
3:15 am 03:15 Clear 38 3.3 38 3.3 100 100 WNW 7 11 29.95 1014 10 16 0.00 0.00
3:35 am 03:35 Clear 38 3.1 38 3.1 100 100 WNW 8 13 29.96 1014 7 11 0.00 0.00
3:55 am 03:55 Clear 37 3 37 3 100 100 WNW 8 13 29.96 1014 10 16 0.00 0.00
4:15 am 04:15 Clear 37 3 37 2.8 99 99 WNW 8 13 29.96 1014 10 16 0.00 0.00
4:35 am 04:35 Clear 37 2.9 37 2.8 99 99 W 5 7 29.95 1014 10 16 0.00 0.00
4:55 am 04:55 Clear 37 2.5 37 2.5 100 100 WNW 7 11 29.95 1014 7 11 0.00 0.00
5:15 am 05:15 Clear with Mist and Fog 36 2.2 36 2.2 100 100 NW 9 15 29.97 1015 5 8 0.00 0.00
5:35 am 05:35 Clear with Mist and Fog 36 2.4 36 2.4 100 100 NW 7 11 29.96 1015 5 8 0.00 0.00
5:55 am 05:55 Clear 38 3.1 38 3.1 100 100 W 8 13 29.97 1015 7 11 0.00 0.00
6:15 am 06:15 Clear with Mist and Fog 37 3 37 3 100 100 W 9 15 29.97 1015 5 8 0.00 0.00
6:35 am 06:35 Clear with Mist and Fog 37 2.6 37 2.6 100 100 WNW 9 15 29.97 1015 5 8 0.00 0.00
6:55 am 06:55 Sunny with Mist and Fog 36 2.2 36 2.2 100 100 WNW 7 11 29.98 1015 4 6 0.00 0.00
7:15 am 07:15 Sunny 37 3 37 2.8 99 99 WNW 10 17 29.97 1015 7 11 0.00 0.00
7:35 am 07:35 Sunny 38 3.5 38 3.1 97 97 WNW 10 17 29.96 1015 10 16 0.00 0.00
7:55 am 07:55 Sunny 39 4 38 3.5 97 97 WNW 8 13 29.97 1015 10 16 0.00 0.00
8:15 am 08:15 Sunny 40 4.5 39 3.7 95 95 W 10 17 29.97 1015 10 16 0.00 0.00
8:35 am 08:35 Sunny 41 5.2 40 4.4 95 95 WNW 10 17 29.97 1015 10 16 0.00 0.00
8:55 am 08:55 Sunny 43 6 40 4.5 90 90 WNW 10 17 29.96 1015 10 16 0.00 0.00
9:15 am 09:15 Sunny 45 7 42 5.6 91 91 WNW 13 20 29.95 1014 10 16 0.00 0.00
9:35 am 09:35 Sunny 46 8 42 5.7 86 86 WNW 10 17 29.94 1014 10 16 0.00 0.00
9:55 am 09:55 Sunny 49 9.2 43 6.3 82 82 NW 13 20 29.92 1013 10 16 0.00 0.00
10:15 am 10:15 Sunny 50 10.2 44 6.6 79 79 WNW 14 22 29.91 1013 10 16 0.00 0.00
10:35 am 10:35 Sunny 53 11.4 45 7.3 76 76 WNW 12 19 29.90 1012 10 16 0.00 0.00
10:55 am 10:55 Sunny 55 12.6 46 7.9 73 73 NW 14 22 29.89 1012 10 16 0.00 0.00
11:15 am 11:15 Sunny 56 13.5 46 7.8 69 69 NW 16 26 29.88 1012 10 16 0.00 0.00
11:35 am 11:35 Sunny 58 14.4 45 7.4 63 63 WNW 14 22 29.87 1012 10 16 0.00 0.00
11:55 am 11:55 Sunny 60 15.5 46 7.5 59 59 NW 13 20 29.86 1011 10 16 0.00 0.00
12:15 pm 12:15 Sunny 61 16.1 45 7.2 56 56 WNW 14 22 29.85 1011 10 16 0.00 0.00
12:35 pm 12:35 Partly Cloudy 63 17.1 43 6.2 49 49 WNW 17 28 29.84 1010 10 16 0.00 0.00
12:55 pm 12:55 Partly Cloudy 64 18 37 2.7 36 36 NW 26 43 29.83 1010 10 16 0.00 0.00
1:15 pm 13:15 Partly Cloudy 65 18.6 35 1.8 33 33 NNW 22 35 29.81 1010 10 16 0.00 0.00
1:35 pm 13:35 Partly Cloudy 65 18.4 33 0.8 31 31 NNW 22 35 29.82 1010 10 16 0.00 0.00
1:55 pm 13:55 Partly Cloudy 67 19.5 34 0.9 29 29 NW 24 39 29.80 1009 10 16 0.00 0.00
2:15 pm 14:15 Mostly Cloudy 66 19.1 33 0.5 29 29 NNW 24 39 29.80 1009 10 16 0.00 0.00
2:35 pm 14:35 Mostly Cloudy 68 19.9 35 1.4 29 29 NW 20 31 29.78 1009 10 16 0.00 0.00
2:55 pm 14:55 Cloudy 68 20.1 34 1.3 29 29 NW 20 31 29.78 1009 10 16 0.00 0.00
3:15 pm 15:15 Cloudy 67 19.3 33 0.6 29 29 NW 28 44 29.80 1009 10 16 0.00 0.00
3:55 pm 15:55 Cloudy 67 19.2 34 1 30 30 NW 18 30 29.79 1009 10 16 0.00 0.00
4:15 pm 16:15 Mostly Cloudy 67 19.5 34 1 29 29 NNW 17 28 29.78 1008 10 16 0.00 0.00
4:35 pm 16:35 Cloudy 68 19.9 33 0.6 28 28 NW 20 31 29.77 1008 10 16 0.00 0.00
4:55 pm 16:55 Cloudy 67 19.7 35 1.4 30 30 NNW 26 43 29.78 1008 10 16 0.00 0.00
5:15 pm 17:15 Mostly Cloudy 68 20.2 34 1.2 28 28 NNW 20 31 29.77 1008 10 16 0.00 0.00
5:35 pm 17:35 Partly Cloudy 67 19.5 34 1 29 29 NNW 22 35 29.79 1009 10 16 0.00 0.00
5:55 pm 17:55 Mostly Cloudy 66 18.8 34 1 30 30 NNW 18 30 29.80 1009 10 16 0.00 0.00
6:15 pm 18:15 Mostly Cloudy 67 19.2 35 1.5 31 31 NNW 18 30 29.80 1009 10 16 0.00 0.00
6:35 pm 18:35 Partly Cloudy 66 19 34 1.3 31 31 NNW 18 30 29.80 1009 10 16 0.00 0.00
6:55 pm 18:55 Partly Cloudy 65 18.5 34 1 31 31 NW 16 26 29.82 1010 10 16 0.00 0.00
7:15 pm 19:15 Partly Cloudy 65 18.2 33 0.8 31 31 NW 15 24 29.82 1010 10 16 0.00 0.00
7:35 pm 19:35 Partly Cloudy 64 17.8 33 0.3 31 31 NNW 14 22 29.82 1010 10 16 0.00 0.00
7:55 pm 19:55 Sunny 62 16.7 33 0.5 34 34 N 10 17 29.84 1011 10 16 0.00 0.00
8:15 pm 20:15 Sunny 58 14.2 34 1 41 41 NNW 7 11 29.86 1011 10 16 0.00 0.00
8:35 pm 20:35 Clear 54 12.3 33 0.6 45 45 N 7 11 29.89 1012 10 16 0.00 0.00
8:55 pm 20:55 Clear 52 11 32 0 47 47 N 7 11 29.91 1013 10 16 0.00 0.00
9:15 pm 21:15 Clear 47 8.4 33 0.4 57 57 N 5 7 29.95 1014 10 16 0.00 0.00
9:35 pm 21:35 Clear 47 8.5 32 0 55 55 N 5 7 29.96 1014 10 16 0.00 0.00
9:55 pm 21:55 Clear 44 6.6 32 0.2 64 64 Calm 29.98 1015 10 16 0.00 0.00
10:15 pm 22:15 Clear 47 8.1 32 0 57 57 Calm 29.98 1015 10 16 0.00 0.00
10:35 pm 22:35 Clear 43 6.2 32 0 65 65 W 5 7 30.01 1016 10 16 0.00 0.00
10:55 pm 22:55 Clear 42 5.8 32 0 67 67 W 3 6 30.01 1016 10 16 0.00 0.00
11:15 pm 23:15 Clear 41 5 34 1 76 76 W 3 6 30.02 1017 10 16 0.00 0.00
11:35 pm 23:35 Clear 42 5.6 33 0.7 71 71 W 6 9 30.01 1016 10 16 0.00 0.00
11:55 pm 23:55 Clear 41 5 33 0.6 73 73 W 6 9 30.02 1017 10 16 0.00 0.00

Powered by AerisWeather